Location: McFarlands Corners
(41.4117°N, 81.3382°W)
Time: 21:14:28
(UTC+00:00)

SR - Pass Details

Date: 19 February 2026
Orbit: 573 x 848 km, 66.7° (Epoch: 6 March)

Event Time Altitude Azimuth Distance (km) Brightness Sun altitude
Rises 08:31:49 0° 176° (S) 2,762 - -41.7°
Reaches altitude 10° 08:34:20 10° 162° (SSE) 1,874 - -41.3°
Maximum altitude 08:37:39 23° 109° (ESE) 1,252 - -40.7°
Drops below altitude 10° 08:41:03 10° 57° (ENE) 1,936 - -40.1°
Exits shadow 08:41:19 - 55° (NE) 2,022 ? -40.1°
Sets 08:43:42 0° 43° (NE) 2,879 ? -39.7°
